Zurück zum Katalog

GALAXY 19

AktivKommunikationGEO
NORAD 33376·PAYLOAD·🇺🇸 United States

Gestartet Sep 24, 2008 von Sea Launch Platform

Loading…

TLE

AktuellSource: CelesTrak SupGP

Epoche: Sep 14, 2026, 00:00 UTC

1 33376C 08045A   26257.00000000 -.00000049  00000+0  00000+0 0  2570
2 33376   0.0411 249.2461 0002449 279.6223  87.1189  1.00272589    17

Verfolge GALAXY 19 in Echtzeit mit AllMySat

Download on the App Store